TimeMDT,TemperatureF,Dew PointF,Humidity,Sea Level PressureIn,VisibilityMPH,Wind Direction,Wind SpeedMPH,Gust SpeedMPH,PrecipitationIn,Events,Conditions,WindDirDegrees,DateUTC
12:53 AM,50.0,37.4,62,29.95,10.0,SW,8.1,-,N/A,,Partly Cloudy,230,2013-04-26 06:53:00
1:53 AM,48.9,39.0,69,29.92,10.0,SW,8.1,-,N/A,,Clear,230,2013-04-26 07:53:00
2:53 AM,46.0,37.9,73,29.92,10.0,SSW,4.6,-,N/A,,Clear,210,2013-04-26 08:53:00
3:53 AM,43.0,37.0,80,29.96,10.0,NNW,4.6,-,N/A,,Clear,330,2013-04-26 09:53:00
4:53 AM,39.0,34.0,82,29.97,10.0,Calm,Calm,-,N/A,,Clear,0,2013-04-26 10:53:00
5:53 AM,36.0,33.1,89,29.99,10.0,Calm,Calm,-,N/A,,Clear,0,2013-04-26 11:53:00
6:53 AM,39.9,36.0,86,30.01,10.0,Calm,Calm,-,N/A,,Clear,0,2013-04-26 12:53:00
7:53 AM,48.9,28.9,46,30.03,10.0,North,11.5,-,N/A,,Clear,350,2013-04-26 13:53:00
8:39 AM,59.0,28.4,31,30.05,1.8,NNE,13.8,-,N/A,,Haze,30,2013-04-26 14:39:00
8:53 AM,61.0,27.0,27,30.03,-9999.0,NNE,16.1,-,N/A,,Unknown,20,2013-04-26 14:53:00
9:45 AM,68.0,23.0,18,30.06,2.0,NNE,23.0,27.6,0.00,,Haze,30,2013-04-26 15:45:00
9:53 AM,69.1,23.0,18,30.02,3.0,NNE,21.9,27.6,0.00,,Haze,30,2013-04-26 15:53:00
10:04 AM,69.8,21.2,16,30.07,1.5,NE,20.7,29.9,N/A,,Haze,40,2013-04-26 16:04:00
10:14 AM,69.8,21.2,16,30.07,10.0,NE,19.6,28.8,N/A,,Clear,40,2013-04-26 16:14:00
10:53 AM,72.0,19.0,13,30.04,10.0,NNE,20.7,29.9,N/A,,Clear,30,2013-04-26 16:53:00
11:53 AM,73.0,19.0,13,30.04,10.0,NNE,21.9,27.6,N/A,,Clear,20,2013-04-26 17:53:00
12:53 PM,73.9,18.0,12,30.04,10.0,NE,17.3,26.5,N/A,,Clear,50,2013-04-26 18:53:00
1:53 PM,75.9,19.0,12,30.04,10.0,NE,13.8,18.4,N/A,,Clear,40,2013-04-26 19:53:00
2:53 PM,73.9,18.0,12,30.05,10.0,ENE,12.7,26.5,N/A,,Clear,70,2013-04-26 20:53:00
3:53 PM,73.9,19.0,13,30.05,10.0,NNE,15.0,21.9,N/A,,Clear,20,2013-04-26 21:53:00
4:53 PM,73.9,18.0,12,30.07,10.0,NNE,12.7,-,N/A,,Clear,20,2013-04-26 22:53:00
5:53 PM,72.0,18.0,13,30.09,10.0,NE,9.2,19.6,N/A,,Scattered Clouds,40,2013-04-26 23:53:00
6:53 PM,66.0,21.9,19,30.11,10.0,NNE,5.8,-,N/A,,Scattered Clouds,30,2013-04-27 00:53:00
7:53 PM,57.9,23.0,26,30.13,10.0,NNE,9.2,-,N/A,,Clear,30,2013-04-27 01:53:00
8:53 PM,51.1,25.0,36,30.14,10.0,NE,6.9,-,N/A,,Clear,50,2013-04-27 02:53:00
9:53 PM,50.0,25.0,38,30.15,10.0,SE,4.6,-,N/A,,Clear,140,2013-04-27 03:53:00
10:53 PM,48.0,25.0,41,30.14,10.0,SE,3.5,-,N/A,,Clear,130,2013-04-27 04:53:00
11:53 PM,46.9,28.9,50,30.15,10.0,Calm,Calm,-,N/A,,Clear,0,2013-04-27 05:53:00